Voltar ao catálogo

GALAXY 26

TELSTAR 6

AtivoComunicaçõesGEO
NORAD 25626·PAYLOAD·🇺🇸 United States

Lançado Feb 15, 1999 de Baikonur Cosmodrome

Loading…

TLE

AtualizadoSource: Space-Track

Época: Sep 14, 2026, 12:02 UTC

1 25626U 99005A   26257.50157976  .00000045  00000-0  00000-0 0  9995
2 25626  11.8285  45.9899 0005458 149.9453 221.0045  0.98995848 44887

Acompanhe GALAXY 26 em tempo real com AllMySat

Download on the App Store